Location: Alfortville
(48.8058°N, 2.4204°E)
Time: 22:02:18
(UTC+00:00)

SR - Pass Details

Date: 19 April 2026
Orbit: 568 x 852 km, 66.7° (Epoch: 19 May)

Event Time Altitude Azimuth Distance (km) Brightness Sun altitude
Rises 20:07:18 0° 326° (NW) 3,234 ? -12.5°
Reaches altitude 10° 20:10:00 10° 339° (NNW) 2,351 ? -12.9°
Maximum altitude 20:14:36 27° 37° (NE) 1,527 ? -13.5°
Enters shadow 20:18:39 13° 89° (E) 2,239 ? -14.0°
